Weather in Bolshoy kamen

Russia / Primorsky Krai     43°06′40″N   132°20′52″E
temp.,
°C
wind,
m/s
gust,
m/s
humid.,
%
clouds,
%
prec.,
mm/h
press.,
hPa
HPBL,
m
1 march, mon
mon101:00−1n81380100 0.0 1024344
04:00−4n111672100 0.0 1028670
07:00−6n101570100 0.0 1029818
10:00−7n91364100 0.0 1031914
13:00−7n101358100 0.1 1031910
16:00−7n101359100 0.4 1028853
19:00−7n81260100 0.1 1028613
22:00−8n91357100 0.1 1028625
2 march, tue
tue201:00−8n91450100 0.0 1026755
04:00−9n111553100 0.0 1025669
07:00−11n111656100 0.0 1025671
10:00−11n11155567 0.0 1026777
13:00−9n1114540 0.0 10261025
16:00−8n1014580 0.0 10261012
19:00−10n712600 0.0 1028553
22:00−11n610600 0.0 1030393
3 march, wed
wed301:00−11n58630 0.0 1030255
04:00−12nnw34700 0.0 1031140
07:00−12nne33640 0.0 103087
10:00−9sse225517 0.0 1030140
13:00−5sse7116797 0.0 1028844
16:00−2sse9139098 0.3 1024897
19:00−1s91598100 1.6 1021508
22:00+1sse71390100 2.4 1021302
4 march, thu
thu401:00+1sse71184100 0.1 1019216
04:00−2se349181 0.1 101926
07:00−2se239098 0.0 102021
10:000se348699 0.0 102058
13:00+1sse4685100 0.0 1018112
16:00+2sse588493 0.0 1016138
19:00+1se69880 0.0 1016115
22:000ese559018 0.0 101657
5 march, fri
fri501:00−2ese33929 0.0 101629
04:00−1se238654 0.0 101622
07:000sw128389 0.0 101722
10:00+1n6119394 0.1 1020239
13:00−2n101571100 0.0 1022609
16:00−3n121764100 0.0 1024651
19:00−6n111560100 0.0 1026635
22:00−8n101559100 0.0 1029937